Zurück zum Katalog

SL-14 DEB

AktivPO
NORAD 45469·DEBRIS·🇷🇺 Russia

Gestartet Aug 15, 1991 von Plesetsk Cosmodrome

Loading…

Nächste Überflüge (nächste 24 Stunden)

TLE

AktuellSource: Space-Track

Epoche: Sep 13, 2026, 06:22 UTC

1 45469U 91056CU  26256.26583626  .00000831  00000-0  13931-2 0  9999
2 45469  82.5505   5.7569 0099495 323.4292  36.0079 13.43087561317260

Verfolge SL-14 DEB in Echtzeit mit AllMySat

Download on the App Store